Location: Unspecified
(43.3830°N, 0.0000°E)
Time: 19:25:22
(UTC+00:00)

Transit 2A - Pass Details

Date: 26 June 2019
Orbit: 594 x 965 km, 66.7° (Epoch: 16 July)

Event Time Altitude Azimuth Distance (km) Brightness Sun altitude
Exits shadow 23:20:49 32° 216° (SW) 1,578 7.2 -22.6°
Maximum altitude 23:23:58 82° 301° (WNW) 973 6.4 -22.7°
Drops below altitude 10° 23:30:15 10° 30° (NNE) 2,646 9.5 -22.9°
Sets 23:32:44 0° 31° (NNE) 3,557 10.2 -22.9°
